| time (UTC) | temp F | wind direction | speed knots | gust knots | rain 1hr in | rain 24hr in | rain mn in | humidity % | barometer mb |
| 20260901140055 | 62 | 227 | 0.0 | 3.5 | 0.00 | 0.01 | 0.00 | 94 | 1013.9 |
| 20260901134601 | 59 | 227 | 0.9 | 3.5 | 0.00 | 0.01 | 0.00 | 95 | 1014.0 |
| 20260901133105 | 58 | 0 | 0.0 | 0.0 | 0.00 | 0.01 | 0.00 | 99 | 1014.2 |
| 20260901131603 | 56 | 0 | 0.0 | 2.6 | 0.00 | 0.01 | 0.00 | 99 | 1014.2 |
| 20260901124605 | 51 | 0 | 0.0 | 0.0 | 0.00 | 0.01 | 0.00 | 99 | 1014.1 |
| 20260901123055 | 50 | 0 | 0.0 | 0.0 | 0.00 | 0.01 | 0.00 | 98 | 1014.1 |
| 20260901121603 | 50 | 0 | 0.0 | 0.0 | 0.00 | 0.01 | 0.00 | 98 | 1013.9 |
| 20260901120118 | 49 | 0 | 0.0 | 0.0 | 0.00 | 0.01 | 0.00 | 98 | 1013.8 |
| 20260901114556 | 49 | 0 | 0.0 | 0.0 | 0.00 | 0.01 | 0.00 | 98 | 1013.9 |
| 20260901113101 | 49 | 0 | 0.0 | 0.0 | 0.00 | 0.01 | 0.00 | 97 | 1013.6 |
| 20260901111557 | 49 | 0 | 0.0 | 0.0 | 0.00 | 0.01 | 0.00 | 97 | 1013.6 |
| 20260901110058 | 50 | 0 | 0.0 | 0.0 | 0.00 | 0.01 | 0.00 | 97 | 1013.4 |
| 20260901104603 | 50 | 0 | 0.0 | 0.0 | 0.00 | 0.06 | 0.00 | 97 | 1013.4 |
| 20260901103102 | 51 | 0 | 0.0 | 0.0 | 0.00 | 0.06 | 0.00 | 97 | 1013.3 |
| 20260901101556 | 51 | 0 | 0.0 | 0.0 | 0.00 | 0.06 | 0.00 | 98 | 1013.4 |
| 20260901100056 | 51 | 0 | 0.0 | 0.0 | 0.00 | 0.06 | 0.00 | 97 | 1013.4 |
| 20260901094603 | 51 | 0 | 0.0 | 0.0 | 0.00 | 0.25 | 0.00 | 97 | 1013.4 |
| 20260901093059 | 51 | 0 | 0.0 | 0.0 | 0.00 | 0.25 | 0.00 | 97 | 1013.3 |
| 20260901091554 | 52 | 0 | 0.0 | 0.0 | 0.00 | 0.25 | 0.00 | 97 | 1013.1 |
| 20260901084604 | 52 | 0 | 0.0 | 0.0 | 0.00 | 0.25 | 0.00 | 98 | 1013.2 |
| 20260901083057 | 52 | 0 | 0.0 | 0.0 | 0.00 | 0.25 | 0.00 | 97 | 1013.0 |
| 20260901081554 | 52 | 0 | 0.0 | 0.0 | 0.00 | 0.25 | 0.00 | 97 | 1013.1 |
| 20260901080056 | 52 | 0 | 0.0 | 0.0 | 0.00 | 0.25 | 0.00 | 97 | 1013.0 |
| 20260901074604 | 53 | 0 | 0.0 | 0.0 | 0.00 | 0.25 | 0.00 | 97 | 1013.3 |
| 20260901073055 | 53 | 0 | 0.0 | 0.0 | 0.00 | 0.25 | 0.00 | 96 | 1013.4 |
| 20260901071605 | 54 | 0 | 0.0 | 0.0 | 0.00 | 0.25 | 0.00 | 97 | 1013.4 |
| 20260901070106 | 54 | 0 | 0.0 | 0.0 | 0.00 | 0.25 | 0.00 | 96 | 1013.4 |
| 20260901064600 | 54 | 0 | 0.0 | 0.0 | 0.00 | 0.32 | 0.00 | 96 | 1013.3 |
| 20260901063113 | 55 | 0 | 0.0 | 0.0 | 0.00 | 0.32 | 0.00 | 96 | 1013.3 |
| 20260901061621 | 55 | 0 | 0.0 | 0.0 | 0.00 | 0.32 | 0.00 | 96 | 1013.2 |
| 20260901060105 | 56 | 0 | 0.0 | 0.0 | 0.00 | 0.32 | 0.00 | 97 | 1013.1 |
| 20260901054602 | 56 | 0 | 0.0 | 0.0 | 0.00 | 0.42 | 0.00 | 96 | 1013.2 |
| 20260901053100 | 56 | 0 | 0.0 | 0.0 | 0.00 | 0.42 | 0.00 | 96 | 1013.2 |
| 20260901051613 | 57 | 0 | 0.0 | 0.0 | 0.00 | 0.42 | 0.00 | 96 | 1013.2 |
| 20260901050109 | 57 | 0 | 0.0 | 0.0 | 0.00 | 0.42 | 0.00 | 95 | 1013.2 |
| 20260901044604 | 58 | 0 | 0.0 | 0.0 | 0.00 | 0.42 | 0.42 | 96 | 1013.3 |
| 20260901043057 | 58 | 0 | 0.0 | 0.0 | 0.00 | 0.42 | 0.42 | 96 | 1013.3 |
| 20260901041552 | 58 | 0 | 0.0 | 0.0 | 0.00 | 0.42 | 0.42 | 95 | 1013.2 |
| 20260901040052 | 59 | 0 | 0.0 | 0.0 | 0.00 | 0.42 | 0.42 | 95 | 1013.3 |
| 20260901034607 | 59 | 0 | 0.0 | 0.0 | 0.00 | 0.42 | 0.42 | 94 | 1013.2 |
| 20260901033110 | 60 | 0 | 0.0 | 0.0 | 0.00 | 0.42 | 0.42 | 94 | 1013.2 |
| 20260901031556 | 60 | 0 | 0.0 | 0.0 | 0.00 | 0.42 | 0.42 | 94 | 1013.2 |
| 20260901030054 | 61 | 0 | 0.0 | 0.0 | 0.00 | 0.42 | 0.42 | 93 | 1013.2 |
| 20260901024602 | 61 | 0 | 0.0 | 0.0 | 0.00 | 0.42 | 0.42 | 93 | 1013.2 |
| 20260901023056 | 62 | 0 | 0.0 | 0.0 | 0.00 | 0.42 | 0.42 | 92 | 1013.0 |
| 20260901021553 | 62 | 0 | 0.0 | 0.0 | 0.00 | 0.42 | 0.42 | 92 | 1013.2 |
| 20260901020101 | 63 | 0 | 0.0 | 0.0 | 0.00 | 0.42 | 0.42 | 90 | 1013.1 |
| 20260901014607 | 64 | 0 | 0.0 | 0.0 | 0.00 | 0.42 | 0.42 | 89 | 1012.9 |
| 20260901013101 | 65 | 0 | 0.0 | 0.0 | 0.00 | 0.42 | 0.42 | 88 | 1012.6 |
| 20260901011607 | 66 | 0 | 0.0 | 0.0 | 0.00 | 0.42 | 0.42 | 86 | 1012.5 |
| 20260901010058 | 68 | 0 | 0.0 | 0.0 | 0.00 | 0.42 | 0.42 | 83 | 1012.4 |
| 20260901004618 | 70 | 0 | 0.0 | 0.0 | 0.00 | 0.42 | 0.42 | 79 | 1012.1 |
| 20260901003101 | 73 | 0 | 0.0 | 0.0 | 0.00 | 0.42 | 0.42 | 75 | 1012.0 |
| 20260901001606 | 75 | 0 | 0.0 | 0.0 | 0.00 | 0.42 | 0.42 | 70 | 1011.9 |
| 20260901000109 | 77 | 0 | 0.0 | 2.6 | 0.00 | 0.42 | 0.42 | 67 | 1012.0 |
| 20260831234609 | 79 | 0 | 0.0 | 3.5 | 0.00 | 0.42 | 0.42 | 61 | 1011.9 |
| 20260831233105 | 78 | 211 | 0.0 | 2.6 | 0.00 | 0.42 | 0.42 | 61 | 1012.0 |
| 20260831231609 | 78 | 0 | 0.0 | 3.5 | 0.00 | 0.42 | 0.42 | 60 | 1012.0 |
| 20260831230059 | 78 | 319 | 0.0 | 3.5 | 0.00 | 0.42 | 0.42 | 54 | 1011.9 |
| 20260831224558 | 78 | 335 | 0.0 | 5.2 | 0.00 | 0.42 | 0.42 | 52 | 1011.8 |
| 20260831223106 | 79 | 199 | 0.0 | 6.1 | 0.00 | 0.42 | 0.42 | 52 | 1011.9 |
| 20260831221610 | 79 | 0 | 0.0 | 3.5 | 0.00 | 0.42 | 0.42 | 53 | 1011.9 |
| 20260831220103 | 79 | 294 | 0.0 | 6.1 | 0.00 | 0.42 | 0.42 | 50 | 1011.8 |
| 20260831214607 | 80 | 0 | 0.9 | 6.1 | 0.00 | 0.42 | 0.42 | 50 | 1011.7 |
| 20260831213101 | 82 | 40 | 1.7 | 5.2 | 0.00 | 0.42 | 0.42 | 51 | 1011.8 |
| 20260831211601 | 81 | 287 | 0.9 | 6.1 | 0.00 | 0.42 | 0.42 | 51 | 1012.0 |
| 20260831210106 | 81 | 263 | 1.7 | 6.1 | 0.00 | 0.42 | 0.42 | 49 | 1012.0 |
| 20260831204553 | 81 | 304 | 2.6 | 8.7 | 0.00 | 0.42 | 0.42 | 56 | 1012.0 |
| 20260831203107 | 81 | 242 | 1.7 | 7.0 | 0.00 | 0.42 | 0.42 | 62 | 1011.7 |
| 20260831201559 | 80 | 288 | 2.6 | 7.8 | 0.00 | 0.42 | 0.42 | 64 | 1011.8 |
| 20260831200059 | 80 | 184 | 2.6 | 10.4 | 0.00 | 0.42 | 0.42 | 64 | 1011.7 |
| 20260831194615 | 79 | 317 | 1.7 | 9.6 | 0.00 | 0.42 | 0.42 | 66 | 1011.6 |
| 20260831193104 | 79 | 279 | 1.7 | 8.7 | 0.00 | 0.42 | 0.42 | 76 | 1011.4 |
| 20260831191606 | 77 | 230 | 1.7 | 7.0 | 0.00 | 0.42 | 0.42 | 78 | 1011.4 |
| 20260831190118 | 77 | 0 | 0.9 | 7.8 | 0.00 | 0.42 | 0.42 | 84 | 1011.6 |
| 20260831184559 | 75 | 228 | 0.9 | 7.8 | 0.00 | 0.42 | 0.42 | 85 | 1011.4 |
| 20260831183101 | 74 | 232 | 0.9 | 7.8 | 0.00 | 0.42 | 0.42 | 87 | 1011.5 |
| 20260831181604 | 73 | 277 | 3.5 | 7.8 | 0.00 | 0.42 | 0.42 | 92 | 1011.5 |
| 20260831180105 | 72 | 232 | 0.9 | 5.2 | 0.00 | 0.42 | 0.42 | 93 | 1011.6 |
| 20260831174623 | 71 | 285 | 0.9 | 5.2 | 0.00 | 0.42 | 0.42 | 95 | 1011.6 |
| 20260831173053 | 70 | 227 | 0.0 | 3.5 | 0.00 | 0.42 | 0.42 | 97 | 1011.4 |
| 20260831171603 | 70 | 0 | 0.0 | 4.3 | 0.00 | 0.42 | 0.42 | 98 | 1011.5 |
| 20260831170058 | 69 | 0 | 0.9 | 3.5 | 0.01 | 0.42 | 0.42 | 98 | 1011.8 |
| 20260831164605 | 69 | 276 | 0.9 | 6.1 | 0.01 | 0.42 | 0.42 | 98 | 1011.7 |
| 20260831163107 | 69 | 0 | 0.0 | 2.6 | 0.01 | 0.42 | 0.42 | 98 | 1011.6 |
| 20260831161606 | 69 | 233 | 0.0 | 4.3 | 0.01 | 0.42 | 0.42 | 98 | 1011.3 |
| 20260831160106 | 69 | 0 | 0.0 | 4.3 | 0.00 | 0.41 | 0.41 | 98 | 1011.3 |
| 20260831154624 | 68 | 200 | 1.7 | 7.0 | 0.00 | 0.41 | 0.41 | 98 | 1011.3 |
| 20260831153118 | 68 | 232 | 1.7 | 3.5 | 0.00 | 0.41 | 0.41 | 99 | 1010.9 |
| 20260831151613 | 68 | 0 | 0.0 | 4.3 | 0.00 | 0.41 | 0.41 | 99 | 1010.8 |
| 20260831150106 | 67 | 261 | 0.9 | 4.3 | 0.00 | 0.41 | 0.41 | 99 | 1010.6 |
| 20260831144605 | 67 | 167 | 0.0 | 3.5 | 0.00 | 0.41 | 0.41 | 99 | 1010.6 |
| 20260831143109 | 67 | 0 | 0.0 | 1.7 | 0.00 | 0.41 | 0.41 | 99 | 1010.3 |
| 20260831141605 | 67 | 0 | 0.0 | 2.6 | 0.00 | 0.41 | 0.41 | 99 | 1010.1 |